Location: CAO
(44.5093°N, 80.3921°W)
Time: 10:17:45
(UTC-05:00)

ARIANE 6 FM1 Upper Stage - Pass Details

Date: 29 January 2026
Orbit: 522 x 609 km, 62.0° (Epoch: 9 February)

Event Time Altitude Azimuth Distance (km) Brightness Sun altitude
Rises 18:58:07 0° 269° (W) 2,696 7.9 -16.4°
Reaches altitude 10° 19:01:08 10° 293° (WNW) 1,791 6.1 -16.9°
Maximum altitude 19:03:31 15° 330° (NNW) 1,487 5.1 -17.4°
Drops below altitude 10° 19:05:53 10° 6° (N) 1,777 5.1 -17.8°
Enters shadow 19:06:22 - 12° (NNE) 1,892 5.2 -17.9°
